Regional Weather Roundup
Issued by NWS

Home | Current Version | Previous Version | Text Only | Print | Product List | Glossary On
Versions: 1 2 3 4 5 6 7 8 9 10 11 12 13 14 15 16 17 18 19 20 21 22 23 24 25 26 27
000
ASUS45 KBOU 030507
RWRCO

WEATHER ROUNDUP FOR COLORADO
NATIONAL WEATHER SERVICE DENVER/BOULDER CO
1100 PM MDT MON MAY 02 2016

NOTE: "FAIR" INDICATES FEW OR NO CLOUDS BELOW 12000 FEET WITH NO
SIGNIFICANT WEATHER AND/OR OBSTRUCTIONS TO VISIBILITY.

COZ001>005-013-030-031-030600-
...NORTHWEST COLORADO...

CITY           SKY/WX    TMP DP  RH WIND       PRES   REMARKS
CRAIG          FAIR      37  25  61 CALM      30.22R
HAYDEN         FAIR      39  23  52 S5        30.22S
MEEKER         FAIR      41  29  62 E3        30.23R
MOUNT WERNER   NOT AVBL
STEAMBOAT SPGS FAIR      39  25  57 SE6       30.22F
WALDEN         FAIR      30  19  64 CALM      30.27S
$$

COZ006>008-011-030600-
...WEST CENTRAL VALLEYS...

CITY           SKY/WX    TMP DP  RH WIND       PRES   REMARKS
GRAND JUNCTION FAIR      54  34  46 N9        30.15S
MONTROSE       FAIR      47  31  53 SE9       30.21R
EAGLE          FAIR      45  30  57 NW6       30.24R
RIFLE          FAIR      48  30  49 S3        30.18R
DELTA          NOT AVBL
NUCLA          NOT AVBL
$$

COZ017>023-064>068-030600-
...SOUTHWEST COLORADO...

CITY           SKY/WX    TMP DP  RH WIND       PRES   REMARKS
DURANGO        FAIR      39  34  82 VRB5      30.21S
CORTEZ         FAIR      41  37  86 CALM      30.21R
PAGOSA SPRINGS FAIR      37  35  94 CALM      30.26S
TELLURIDE      FAIR      35  33  92 S3        30.31F
WOLF CREEK PAS FAIR      25  25 100 S5        30.38S WCI  19
$$

COZ009-010-012-014-032>034-037-058>063-030600-
...CENTRAL COLORADO...

CITY           SKY/WX    TMP DP  RH WIND       PRES   REMARKS
ASPEN          FAIR      39  29  67 SW5       30.24R
BUENA VISTA    FAIR      37  28  71 NW3       30.23S
COPPER MTN     NOT AVBL
BERTHOUD PASS  LGT SNOW  19  10  68 NW33G40   30.31S WCI   0
COTTONWOOD PAS FAIR      39  21  48 SW14      30.29S
GUNNISON       FAIR      39  27  60 CALM      30.26S
KREMMLING      FAIR      39  21  48 CALM      30.25S
LEADVILLE      FAIR      29  20  69 CALM      30.29R
SALIDA         FAIR      41  30  64 W8        30.29S
SUNLIGHT       FAIR      34  25  69 NW5       30.38R WCI  30
WILKERSON PASS FAIR      28  19  69 N10G28    30.34F WCI  19
$$

COZ069>075-030600-
...SAN LUIS VALLEY/SANGRE DE CRISTO MOUNTAINS...

CITY           SKY/WX    TMP DP  RH WIND       PRES   REMARKS
ALAMOSA        FAIR      36  32  85 SE8       30.20S
LA VETA PASS   FAIR      32  30  93 MISG      30.27S
SAGUACHE       FAIR      37  30  75 N7        30.23R
$$

COZ035-036-038>040-030600-
...NORTHERN COLORADO FRONT RANGE...

CITY           SKY/WX    TMP DP  RH WIND       PRES   REMARKS
DENVER INTL AP MOCLDY    48  29  47 SW6       30.13F
DMNS CITY PARK   N/A     47  30  52 SW3       30.14S
AURORA         FAIR      42  31  64 S7        30.15F
FRONT RANGE AP NOT AVBL
ERIE MUNI ARPT FAIR      44  35  69 CALM      30.14S
BOULDER MUN AP CLOUDY    46  32  57 CALM      30.14S
CENTENNIAL     FAIR      41  28  60 S6        30.15F
BROOMFIELD     NOT AVBL
FORT COLLINS   MOCLDY    50  32  50 CALM      30.14S
LONGMONT       CLOUDY    49  34  55 W3        30.15F
$$

COZ041-046-047-076>085-087-088-030600-
...PIKES PEAK/PALMER DIVIDE AND SOUTHERN FOOTHILLS...

CITY           SKY/WX    TMP DP  RH WIND       PRES   REMARKS
COLO. SPRINGS  FAIR      44  23  43 W8        30.19S
A. F. ACADEMY  FAIR      34  25  69 N6        30.18F WCI  29
SCHRIEVER AFB  NOT AVBL
ELLICOTT       FAIR       1  32 100 N3        30.16F
FALCON         FAIR      39  25  57 NW6       30.20S
FORT CARSON    FAIR      44  30  57 W6        30.16F
LIMON          FAIR      34  29  82 N3        30.13F
MONUMENT HILL  MOCLDY    37  25  60 SW8       30.21S
TRINIDAD       FAIR      42  35  76 W8        30.14S
$$

COZ042>045-048>051-090-091-030600-
...NORTHEAST COLORADO...

CITY           SKY/WX    TMP DP  RH WIND       PRES   REMARKS
GREELEY ARPT   FAIR      48  30  49 NW10      30.13S
AKRON          CLOUDY    47  31  53 W12       30.08R
BURLINGTON     CLOUDY    43  32  65 W6        30.09S
WRAY           NOT AVBL
STERLING       CLOUDY    50  36  57 NW8       30.05S
HOLYOKE        NOT AVBL
FORT MORGAN    FAIR      48  29  48 NW12      30.11R
$$

COZ086-089-092>099-030600-
...SOUTHEAST COLORADO...

CITY           SKY/WX    TMP DP  RH WIND       PRES   REMARKS
PUEBLO         FAIR      46  34  62 N7        30.14R
LA JUNTA       FAIR      48  31  51 SW8       30.11S
LAMAR          MOCLDY    40  34  79 SW7       30.08F
SPRINGFIELD      N/A     37  32  82 W6        30.13R
$$




USA.gov is the U.S. government's official web portal to all federal, state and local government web resources and services.